Alma, GA

12:57 AM EST on November 18, 2019 (GMT -0500)
Bacon County

Weather History for KAMG - August, 2019

Change the Weather History Date:

Saturday, August 10, 2019

  Actual Average Record
Temperature  
Mean Temperature 88 °F 82 °F  
Max Temperature 99 °F 92 °F 99 °F (2007)
Min Temperature 76 °F 72 °F 62 °F (1950)
Degree Days  
Heating Degree Days 0 0  
Month to date heating degree days 0 0  
Since 1 June heating degree days 0 0  
Since 1 July heating degree days 0 0  
Cooling Degree Days 23 17  
Month to date cooling degree days 186 170  
Year to date cooling degree days 1910 1572  
Since 1 June cooling degree days 1244 1142  
Growing Degree Days 37 (Base 50)    
Moisture  
Dew Point 74 °F    
Average Humidity 70    
Maximum Humidity 91    
Minimum Humidity 48    
Precipitation  
Precipitation 0.38 in 0.19 in 2.90 in (1970)
Month to date precipitation 0.79 1.93  
Year to date precipitation 22.14 30.73  
Snow  
Snow 0.00 in 0.00 in 0.00 in ()
Month to date snowfall 0.0 0.0  
Since 1 June snowfall 0.0 0.0  
Since 1 July snowfall 0.0 0.0  
Snow Depth 0.00 in    
Sea Level Pressure  
Sea Level Pressure 29.90 in    
Wind  
Wind Speed 5 mph (WSW)    
Max Wind Speed 15 mph    
Max Gust Speed 20 mph    
Visibility 9 miles    
Events Rain , Thunderstorm    
T = Trace of Precipitation, MM = Missing Value Source: NWS Daily Summary

Daily Weather History Graph

Daily Weather History Graph

Search for Another Location

Airport or City:

Astronomy

Aug. 10, 2019 Rise Set
Actual Time 6:51 AM EDT 8:18 PM EDT
Civil Twilight 6:26 AM EDT 8:44 PM EDT
Nautical Twilight 5:54 AM EDT 9:15 PM EDT
Astronomical Twilight 5:22 AM EDT 9:47 PM EDT
Moon 4:52 PM EDT (8/10) 2:33 AM EDT (8/10)
Length of Visible Light 14h 18m
Length of Day
13h 26m
Waxing Gibbous, 79% of the Moon is Illuminated
Aug 10
Waxing Gibbous
Aug 15
Full
Aug 23
Last Quarter
Aug 30
New
Sep 5
First Quarter

Hourly Weather History & Observations

Time (EDT) Temp. Heat Index Dew Point Humidity Pressure Visibility Wind Dir Wind Speed Gust Speed Precip Events Conditions
12:53 AM 81.0 °F 86.7 °F 75.0 °F 82% 29.92 in 9.0 mi SSW 3.5 mph - N/A   Clear
1:53 AM 81.0 °F 86.7 °F 75.0 °F 82% 29.90 in 9.0 mi Calm Calm - N/A   Clear
2:53 AM 81.0 °F 86.7 °F 75.0 °F 82% 29.89 in 9.0 mi SW 3.5 mph - N/A   Clear
3:53 AM 81.0 °F 86.7 °F 75.0 °F 82% 29.89 in 9.0 mi Calm Calm - N/A   Clear
4:53 AM 80.1 °F 85.1 °F 75.0 °F 85% 29.89 in 9.0 mi Calm Calm - N/A   Clear
5:53 AM 79.0 °F - 75.0 °F 88% 29.90 in 8.0 mi West 3.5 mph - N/A   Clear
6:53 AM 79.0 °F - 75.0 °F 88% 29.91 in 7.0 mi WNW 3.5 mph - N/A   Clear
7:53 AM 81.0 °F 87.3 °F 75.9 °F 85% 29.94 in 8.0 mi WNW 3.5 mph - N/A   Clear
8:53 AM 84.9 °F 94.1 °F 75.9 °F 74% 29.94 in 9.0 mi WNW 4.6 mph - N/A   Clear
9:53 AM 88.0 °F 98.5 °F 75.9 °F 67% 29.95 in 9.0 mi NW 5.8 mph - N/A   Clear
10:53 AM 91.9 °F 105.9 °F 77.0 °F 62% 29.96 in 10.0 mi WSW 4.6 mph - N/A   Clear
11:53 AM 93.9 °F 105.4 °F 75.0 °F 54% 29.95 in 10.0 mi West 3.5 mph - N/A   Clear
12:53 PM 96.1 °F 108.6 °F 75.0 °F 51% 29.93 in 10.0 mi Variable 5.8 mph - N/A   Partly Cloudy
1:53 PM 97.0 °F 107.7 °F 73.9 °F 47% 29.91 in 10.0 mi SW 4.6 mph - N/A   Scattered Clouds
2:53 PM 96.1 °F 105.6 °F 73.0 °F 47% 29.88 in 10.0 mi WSW 5.8 mph - N/A   Clear
3:53 PM 97.0 °F 107.7 °F 73.9 °F 47% 29.85 in 10.0 mi SW 9.2 mph - N/A   Partly Cloudy
4:53 PM 97.0 °F 107.0 °F 73.0 °F 46% 29.85 in 10.0 mi SW 9.2 mph - N/A   Partly Cloudy
5:14 PM 95.0 °F 105.2 °F 73.9 °F 50% 29.85 in 10.0 mi SW 5.8 mph - N/A Thunderstorm Clear
5:29 PM 93.0 °F 103.2 °F 73.9 °F 54% 29.85 in 10.0 mi West 11.5 mph - N/A   Clear
5:53 PM 91.9 °F 98.4 °F 71.1 °F 50% 29.84 in 10.0 mi West 5.8 mph - N/A Thunderstorm Clear
6:11 PM 91.0 °F 98.2 °F 72.0 °F 53% 29.86 in 10.0 mi Variable 6.9 mph - N/A   Partly Cloudy
6:24 PM 90.0 °F 96.4 °F 71.1 °F 54% 29.86 in 10.0 mi Calm Calm - N/A Thunderstorm Partly Cloudy
6:53 PM 89.1 °F 96.0 °F 72.0 °F 57% 29.87 in 10.0 mi North 5.8 mph - N/A Thunderstorm Scattered Clouds
7:02 PM 87.1 °F 93.6 °F 72.0 °F 61% 29.88 in 10.0 mi North 4.6 mph - N/A Thunderstorm Thunderstorm
7:28 PM 84.9 °F 91.4 °F 73.0 °F 67% 29.90 in 10.0 mi Variable 3.5 mph - N/A Thunderstorm Mostly Cloudy
7:44 PM 82.0 °F 88.6 °F 75.0 °F 79% 29.89 in 6.0 mi North 5.8 mph - 0.00 in Rain , Thunderstorm Light Thunderstorms and Rain
7:53 PM 81.0 °F 87.3 °F 75.9 °F 85% 29.90 in 3.0 mi Variable 3.5 mph - 0.01 in Rain , Thunderstorm Thunderstorms and Rain
7:55 PM 81.0 °F 87.3 °F 75.9 °F 85% 29.91 in 1.8 mi Variable 4.6 mph - 0.03 in Rain , Thunderstorm Thunderstorms and Rain
8:09 PM 79.0 °F - 75.0 °F 88% 29.89 in 3.0 mi East 6.9 mph - 0.08 in Rain , Thunderstorm Light Thunderstorms and Rain
8:33 PM 79.0 °F - 75.0 °F 88% 29.89 in 10.0 mi ENE 5.8 mph - 0.08 in   Mostly Cloudy
8:53 PM 79.0 °F - 75.0 °F 88% 29.88 in 9.0 mi East 3.5 mph - 0.08 in   Scattered Clouds
9:53 PM 80.1 °F 85.1 °F 75.0 °F 85% 29.91 in 10.0 mi South 4.6 mph - N/A   Partly Cloudy
10:53 PM 79.0 °F - 73.9 °F 84% 29.96 in 10.0 mi South 5.8 mph - N/A   Mostly Cloudy
11:48 PM 77.0 °F - 73.4 °F 89% 29.98 in 10.0 mi SSE 4.6 mph - N/A Thunderstorm Thunderstorm
11:53 PM 78.1 °F - 73.9 °F 87% 29.98 in 10.0 mi West 4.6 mph - N/A Thunderstorm Thunderstorm